PDG61 EGCM-EGCM

Flight info

Callsign PDG61
Flight time 0h 45m
Altitude 500
Route LOW VOLTAGE POWERLINE INSPECTION
Aircraft AS55/L-VGD/A

Departure

Time 2026-04-23 18:08
Airport Leeds East Airport (EGCM)

Arrival

Time 2026-04-23 18:53
Airport Leeds East Airport (EGCM)
Time Latitude Longitude Altitude Speed Heading
2026-04-23 18:03 53.83489 -1.20146 29 ft 0 kts
2026-04-23 18:07 53.83488 -1.20148 38 ft 2 kts 15°
2026-04-23 18:07 53.83440 -1.20076 37 ft 33 kts 153°
2026-04-23 18:07 53.83351 -1.19935 42 ft 41 kts 147°
2026-04-23 18:07 53.83563 -1.19263 523 ft 78 kts 45°
2026-04-23 18:08 53.83823 -1.18743 756 ft 98 kts 51°
2026-04-23 18:08 53.83679 -1.17656 1376 ft 115 kts 180°
2026-04-23 18:08 53.82849 -1.18035 1464 ft 134 kts 190°
2026-04-23 18:08 53.81937 -1.18369 1812 ft 119 kts 184°
2026-04-23 18:09 53.81215 -1.18572 2135 ft 120 kts 184°
2026-04-23 18:09 53.80338 -1.18834 2207 ft 137 kts 187°
2026-04-23 18:09 53.79554 -1.19455 2589 ft 129 kts 204°
2026-04-23 18:09 53.78724 -1.20097 2720 ft 136 kts 199°
2026-04-23 18:10 53.77800 -1.20730 2716 ft 142 kts 199°
2026-04-23 18:10 53.76883 -1.21355 2741 ft 145 kts 200°
2026-04-23 18:10 53.75930 -1.21995 2595 ft 154 kts 200°
2026-04-23 18:10 53.74941 -1.22694 2392 ft 154 kts 199°
2026-04-23 18:11 53.73967 -1.23331 2357 ft 148 kts 199°
2026-04-23 18:11 53.73024 -1.24030 2327 ft 147 kts 203°
2026-04-23 18:11 53.72098 -1.24746 2310 ft 147 kts 201°
2026-04-23 18:11 53.71191 -1.25452 2474 ft 137 kts 203°
2026-04-23 18:12 53.70383 -1.26038 2878 ft 125 kts 192°
2026-04-23 18:12 53.69484 -1.26377 2946 ft 138 kts 188°
2026-04-23 18:12 53.68516 -1.26716 2912 ft 144 kts 192°
2026-04-23 18:12 53.67582 -1.27322 2821 ft 144 kts 197°
2026-04-23 18:13 53.66619 -1.27788 2850 ft 142 kts 192°
2026-04-23 18:13 53.65661 -1.28122 2907 ft 136 kts 188°
2026-04-23 18:13 53.64707 -1.28444 2912 ft 143 kts 189°
2026-04-23 18:13 53.63777 -1.28947 3002 ft 139 kts 194°
2026-04-23 18:14 53.62894 -1.29543 3135 ft 138 kts 201°
2026-04-23 18:14 53.62008 -1.30084 3270 ft 134 kts 194°
2026-04-23 18:14 53.61093 -1.30596 3279 ft 139 kts 194°
2026-04-23 18:14 53.60096 -1.31155 2928 ft 155 kts 196°
2026-04-23 18:15 53.59057 -1.31721 2652 ft 156 kts 195°
2026-04-23 18:15 53.58009 -1.32226 2386 ft 157 kts 193°
2026-04-23 18:15 53.56978 -1.32762 2233 ft 154 kts 194°
2026-04-23 18:15 53.55975 -1.33345 2130 ft 152 kts 197°
2026-04-23 18:16 53.54956 -1.33900 1943 ft 154 kts 197°
2026-04-23 18:16 53.53913 -1.34586 1479 ft 165 kts 199°
2026-04-23 18:16 53.52859 -1.35281 1188 ft 161 kts 200°
2026-04-23 18:17 53.51423 -1.36678 801 ft 70 kts 204°
2026-04-23 18:17 53.51023 -1.37189 498 ft 80 kts 220°
2026-04-23 18:17 53.50619 -1.37783 409 ft 81 kts 214°
2026-04-23 18:17 53.50221 -1.38313 433 ft 62 kts 216°
2026-04-23 18:18 53.50130 -1.37956 311 ft 44 kts 56°
2026-04-23 18:18 53.50335 -1.37620 298 ft 41 kts 14°
2026-04-23 18:18 53.50561 -1.37565 298 ft 30 kts 27°
2026-04-23 18:18 53.50760 -1.37390 377 ft 36 kts 339°
2026-04-23 18:19 53.50951 -1.37850 372 ft 61 kts 325°
2026-04-23 18:19 53.51173 -1.38409 319 ft 75 kts 244°
2026-04-23 18:19 53.50775 -1.38357 315 ft 64 kts 166°
2026-04-23 18:19 53.50283 -1.38122 264 ft 72 kts 129°
2026-04-23 18:20 53.50317 -1.37523 295 ft 58 kts 41°
2026-04-23 18:20 53.50579 -1.37164 382 ft 39 kts 52°
2026-04-23 18:20 53.50627 -1.37395 438 ft 46 kts 189°
2026-04-23 18:20 53.50473 -1.37026 389 ft 46 kts 86°
2026-04-23 18:21 53.50596 -1.36531 437 ft 44 kts 73°
2026-04-23 18:21 53.50754 -1.36041 421 ft 57 kts 69°
2026-04-23 18:21 53.50931 -1.35323 327 ft 69 kts 71°
2026-04-23 18:21 53.51105 -1.34586 322 ft 67 kts 75°
2026-04-23 18:22 53.51142 -1.33882 276 ft 69 kts 129°
2026-04-23 18:22 53.51129 -1.33120 242 ft 65 kts 83°
2026-04-23 18:22 53.51226 -1.32363 215 ft 66 kts 83°
2026-04-23 18:22 53.51292 -1.31622 221 ft 65 kts 83°
2026-04-23 18:23 53.51323 -1.31139 224 ft 64 kts 65°
2026-04-23 18:23 53.51473 -1.29675 163 ft 63 kts 93°
2026-04-23 18:24 53.51541 -1.28219 195 ft 56 kts 101°
2026-04-23 18:24 53.51451 -1.27516 166 ft 64 kts 101°
2026-04-23 18:24 53.51477 -1.26788 185 ft 60 kts 91°
2026-04-23 18:25 53.51548 -1.25405 220 ft 56 kts 91°
2026-04-23 18:25 53.51597 -1.24870 348 ft 35 kts 83°
2026-04-23 18:25 53.51626 -1.24537 381 ft 28 kts 85°
2026-04-23 18:25 53.51657 -1.24137 377 ft 39 kts 78°
2026-04-23 18:26 53.51739 -1.23648 409 ft 43 kts 75°
2026-04-23 18:26 53.51704 -1.23089 393 ft 54 kts 90°
2026-04-23 18:26 53.51727 -1.22385 348 ft 64 kts 87°
2026-04-23 18:26 53.51782 -1.21670 381 ft 59 kts 85°
2026-04-23 18:27 53.51814 -1.20918 339 ft 65 kts 85°
2026-04-23 18:27 53.51891 -1.20385 490 ft 45 kts 65°
2026-04-23 18:27 53.52038 -1.19752 364 ft 70 kts 75°
2026-04-23 18:27 53.52255 -1.18979 323 ft 64 kts 85°
2026-04-23 18:28 53.51974 -1.18633 207 ft 55 kts 118°
2026-04-23 18:28 53.51815 -1.18021 218 ft 59 kts 109°
2026-04-23 18:28 53.51675 -1.17356 226 ft 62 kts 107°
2026-04-23 18:28 53.51733 -1.16643 229 ft 61 kts 68°
2026-04-23 18:29 53.52049 -1.16116 215 ft 66 kts 40°
2026-04-23 18:29 53.52416 -1.15670 224 ft 58 kts 58°
2026-04-23 18:29 53.52511 -1.15077 203 ft 46 kts 76°
2026-04-23 18:29 53.52573 -1.14806 147 ft 9 kts 50°
2026-04-23 18:30 53.52639 -1.14691 135 ft 25 kts 335°
2026-04-23 18:30 53.52703 -1.14864 111 ft 19 kts 239°
2026-04-23 18:30 53.52686 -1.14936 89 ft 30 kts 180°
2026-04-23 18:30 53.52198 -1.15581 64 ft 127 kts 219°
2026-04-23 18:31 53.51714 -1.16565 802 ft 100 kts 251°
2026-04-23 18:31 53.51474 -1.17720 1116 ft 122 kts 249°
2026-04-23 18:31 53.51212 -1.19094 1425 ft 132 kts 251°
2026-04-23 18:31 53.50961 -1.20648 1556 ft 142 kts 257°
2026-04-23 18:32 53.50739 -1.22356 1406 ft 156 kts 260°
2026-04-23 18:32 53.50533 -1.24147 1293 ft 157 kts 262°
2026-04-23 18:32 53.50417 -1.25922 1396 ft 150 kts 263°
2026-04-23 18:32 53.50235 -1.27701 1220 ft 159 kts 265°
2026-04-23 18:33 53.50048 -1.29498 1178 ft 150 kts 256°
2026-04-23 18:33 53.49657 -1.31089 1267 ft 149 kts 244°
2026-04-23 18:33 53.49356 -1.32707 1415 ft 145 kts 262°
2026-04-23 18:33 53.49421 -1.34366 1314 ft 131 kts 282°
2026-04-23 18:34 53.49568 -1.35678 918 ft 104 kts 286°
2026-04-23 18:34 53.49721 -1.36726 555 ft 80 kts 290°
2026-04-23 18:34 53.49889 -1.37471 284 ft 63 kts 307°
2026-04-23 18:34 53.50170 -1.38013 277 ft 73 kts 255°
2026-04-23 18:35 53.50052 -1.38800 357 ft 63 kts 356°
2026-04-23 18:35 53.50423 -1.39398 223 ft 85 kts 313°
2026-04-23 18:35 53.50607 -1.40230 296 ft 75 kts 263°
2026-04-23 18:35 53.50621 -1.41109 330 ft 80 kts 284°
2026-04-23 18:36 53.50886 -1.41738 397 ft 65 kts 311°
2026-04-23 18:36 53.51044 -1.42380 452 ft 56 kts 301°
2026-04-23 18:36 53.51308 -1.42758 466 ft 43 kts 26°
2026-04-23 18:36 53.51431 -1.42623 427 ft 7 kts 45°
2026-04-23 18:37 53.51465 -1.42676 455 ft 16 kts 180°
2026-04-23 18:37 53.51465 -1.42615 460 ft 35 kts 67°
2026-04-23 18:37 53.51521 -1.42508 480 ft 43 kts 41°
2026-04-23 18:37 53.51776 -1.41963 468 ft 86 kts 193°
2026-04-23 18:38 53.51407 -1.42633 510 ft 65 kts 324°
2026-04-23 18:38 53.51467 -1.42681 609 ft 46 kts 69°
2026-04-23 18:38 53.51427 -1.42632 430 ft 19 kts 34°
2026-04-23 18:38 53.51586 -1.42376 403 ft 47 kts 49°
2026-04-23 18:39 53.51938 -1.41939 300 ft 75 kts 42°
2026-04-23 18:39 53.52378 -1.41857 364 ft 72 kts 347°
2026-04-23 18:39 53.52840 -1.42278 300 ft 50 kts
2026-04-23 18:39 53.53054 -1.42165 302 ft 35 kts 28°
2026-04-23 18:40 53.53268 -1.41990 258 ft 33 kts 51°
2026-04-23 18:40 53.53363 -1.41616 236 ft 36 kts 71°
2026-04-23 18:40 53.53229 -1.41579 245 ft 28 kts 277°
2026-04-23 18:40 53.53314 -1.41751 239 ft 37 kts 43°
2026-04-23 18:41 53.53584 -1.41491 252 ft 28 kts 63°
2026-04-23 18:41 53.53725 -1.41010 189 ft 54 kts 59°
2026-04-23 18:41 53.53748 -1.40480 216 ft 52 kts 107°
2026-04-23 18:41 53.53825 -1.39882 206 ft 60 kts 67°
2026-04-23 18:42 53.54110 -1.39484 308 ft 52 kts 20°
2026-04-23 18:42 53.54344 -1.39061 305 ft 55 kts 79°
2026-04-23 18:42 53.54458 -1.38386 309 ft 61 kts 79°
2026-04-23 18:42 53.54539 -1.37624 266 ft 70 kts 83°
2026-04-23 18:43 53.54640 -1.36875 225 ft 62 kts 88°
2026-04-23 18:43 53.54659 -1.36454 268 ft 15 kts 62°
2026-04-23 18:43 53.54570 -1.36885 351 ft 93 kts 221°
2026-04-23 18:43 53.54084 -1.36838 873 ft 98 kts 120°
2026-04-23 18:44 53.54174 -1.35625 1084 ft 117 kts 64°
2026-04-23 18:44 53.54784 -1.34769 1351 ft 124 kts 25°
2026-04-23 18:44 53.55650 -1.34399 1378 ft 135 kts 15°
2026-04-23 18:44 53.56610 -1.34209 1293 ft 141 kts
2026-04-23 18:45 53.57585 -1.34137 1302 ft 140 kts
2026-04-23 18:45 53.58567 -1.34035 1271 ft 141 kts
2026-04-23 18:45 53.59564 -1.34002 1182 ft 141 kts
2026-04-23 18:45 53.60510 -1.33828 1241 ft 138 kts 11°
2026-04-23 18:46 53.61417 -1.33581 1440 ft 128 kts 13°
2026-04-23 18:46 53.62317 -1.33469 1545 ft 134 kts
2026-04-23 18:46 53.63256 -1.33252 1348 ft 137 kts 14°
2026-04-23 18:46 53.64206 -1.32938 1308 ft 139 kts 13°
2026-04-23 18:47 53.65143 -1.32793 1409 ft 136 kts
2026-04-23 18:47 53.66111 -1.32856 1375 ft 141 kts 360°
2026-04-23 18:47 53.67073 -1.33113 1505 ft 138 kts 351°
2026-04-23 18:47 53.68013 -1.33449 1504 ft 145 kts 351°
2026-04-23 18:48 53.68996 -1.33841 1596 ft 138 kts 345°
2026-04-23 18:48 53.69895 -1.34311 1643 ft 140 kts 355°
2026-04-23 18:48 53.70835 -1.34073 1701 ft 137 kts 15°
2026-04-23 18:48 53.71743 -1.33811 1761 ft 136 kts 18°
2026-04-23 18:49 53.72720 -1.33405 1655 ft 139 kts 17°
2026-04-23 18:49 53.73661 -1.33046 1542 ft 143 kts 17°
2026-04-23 18:49 53.74660 -1.32731 1452 ft 144 kts 17°
2026-04-23 18:49 53.75629 -1.32396 1420 ft 141 kts
2026-04-23 18:50 53.76284 -1.32270 1458 ft 138 kts 10°
2026-04-23 18:50 53.77560 -1.32041 1462 ft 139 kts 10°
2026-04-23 18:50 53.78491 -1.31690 1517 ft 133 kts 31°
2026-04-23 18:50 53.79171 -1.30499 1157 ft 143 kts 58°
2026-04-23 18:51 53.79689 -1.29098 984 ft 140 kts 61°
2026-04-23 18:51 53.80201 -1.27699 920 ft 138 kts 58°
2026-04-23 18:51 53.80726 -1.26355 848 ft 139 kts 59°
2026-04-23 18:51 53.81239 -1.24995 871 ft 134 kts 59°
2026-04-23 18:52 53.81757 -1.23699 942 ft 124 kts 57°
2026-04-23 18:52 53.82119 -1.22732 704 ft 84 kts 67°
2026-04-23 18:52 53.82494 -1.21810 479 ft 98 kts 53°
2026-04-23 18:52 53.82829 -1.21032 188 ft 68 kts 58°
2026-04-23 18:53 53.83054 -1.20507 46 ft 56 kts 58°
2026-04-23 18:53 53.83242 -1.20020 34 ft 32 kts 41°
2026-04-23 18:53 53.83434 -1.20058 33 ft 17 kts 312°
2026-04-23 18:53 53.83473 -1.20128 50 ft 15 kts 277°
2026-04-23 18:54 53.83487 -1.20153 35 ft 1 kts 175°
2026-04-23 18:54 53.83486 -1.20152 29 ft 0 kts 179°